"Pseudo-MPEC" for P10QsXw

Created 2019 Aug 15 13:07:09 UT using Find_Orb

Click here for an explanation of pseudo-MPECs

 
 Astrometry: 
     P10QsXw  C2019 08 08dE*Qb7uBikL#E+l;-.8RHh+a8h5g?SPVNLE?xHsw-e9:s+GBGcdRF51
     P10QsXw  C2019 08 08KD,:GNYT$j)*5)8vZEas:5$a1%$u2BV):#WMX5=;?S=Em]D/V^D5F51
     P10QsXw  C2019 08 08y/:X*LT^]]x`nKr)Cg#v+%uRb?asX+b1nViR)D6f[AstrometryhF51
     P10QsXw KC2019 08 08PnS37@6g%pbX2[?_m%G%s$HaF'(_a2S:ED561n,MLr.FX%%[R])XL01
     P10QsXw KC2019 08 08DPO%24gDg[C1J3v?sIElWEJ3J)n#Ax5?(dE:xf8?![*LIZEB)j4;L01
     P10QsXw KC2019 08 08j8N:vwq=ua\#K'q$G/wID\OmtjF$a.qi#mfN0;5Fra(i?ORRwR'DL01
     P10QsXw pC2019 08 08oU4oNmV\dy91fhu[#ATIC7SP.+'`gKUB:Jp-Z-Kredacted;46h1L01
     P10QsXw KC2019 08 085FRiVgV/=:D$'I4$c8NJM[ua\1;$vPclick$O@C_aSH$qbODKciPL01
     P10QsXw  C2019 08 099)fijH+Q5+ZU(?[gt,)P['y)kU4^^MNH(3(YHg9XoXN*y#6(SL0/F51
     P10QsXw KC2019 08 10KmT'9d'herefl)nYfM'S@9Ixh-wEDZxJD.ukbUsUsTBe8jDXr%18H21
     P10QsXw KC2019 08 10s4kaBB`f^jFelct?mM`for2e+VC#5/o.C`Ie]/+9Hu:n:,W4%v[RH21
     P10QsXw KC2019 08 106mu#;R9JH!HbK3y4s9\nS+c9bw83p)h$*^1Cb3x0u#DulqhNeA3NH36
     P10QsXw KC2019 08 104PRBmKsE*#);k(y#VRHq@Q6;d?O:y[]l8be]FC@;C1Cvg!SASUlNH21
     P10QsXw KC2019 08 10,]CqseU.!?f]ecW[-i$]0%j,3FxaR[^#71CF@yG@hX^Q5?8XCvC#H36
     P10QsXw KC2019 08 10@O6fMQsc5PTGs!AsH;k6MOh=nZu8V;wm+=u\68qAlr:G9gJ/Y:\bH36
     P10QsXw KC2019 08 12\yW=OosmdJ;ohj+X\VyNOnPB5QH:h1Qexplanationghn7Ad!lYJ291
     P10QsXw KC2019 08 124IUl+1F3:n=])=hR2Vccx+1:BRXwD7!X`V%EA%Y\svsVn;.ZrKwJ291
     P10QsXw KC2019 08 120.dR`w)_4*qO:Pt6U-L(^E_R:GffM=6]KUjeRs$fXv;L6b6C4'3W291
     P10QsXw KC2019 08 123N%S:,pQiu,Y;8-?$?otkv0.2-v*i0bV8A0RMZ]pVCPq[7j:V`4!291

Station data:
(291) LPL/Spacewatch II  (N31.961669 W111.599905)  US/Arizona.  Observers J.
   V. Scotti, R. S. McMillan. 1.8-m f/2.7 reflector + CCD.
(F51) Pan-STARRS 1, Haleakala  (N20.707235 W156.255910)  US/Hawaii.
   Observers N. Primak, A. Schultz, S. Watters, J. Thiel, T. Goggia. Measurer
   PS1 Science Consortium. 1.8-m Ritchey-Chrétien + CCD.
(H21) Astronomical Research Observatory, Westfield  (N39.483057 W87.968270)
   US/Illinois. 0.76-m f/3.0 astrograph + CCD.
(H36) Sandlot Observatory, Scranton  (N38.797693 W95.706400)  US/Kansas.
   Observer G. Hug. 0.56-m reflector + CCD.
(L01) Višnjan Observatory, Tičan  (N45.290900 E13.749300)  Croatia.
   Observers K. Korlević, E. Pettarin. Measurer E. Pettarin. 1.0-m f/2.9
   reflector + CCD.

Orbital elements:  P10QsXw
   Perihelion 2019 Jul 22.334627 +/- 0.0969 TT =  8:01:51 (JD 2458686.834627)
Epoch 2019 Aug 12.0 TT = JDT 2458707.5   Earth MOID: 0.2948   Ma: 0.0813
M   5.16117190 +/- 0.18             (J2000 ecliptic)          AutoNEOCP
n   0.24974976 +/- 0.00958          Peri.  345.09284 +/- 0.06
a   2.49727284 +/- 0.0639           Node   316.07137 +/- 0.010
e   0.4776812 +/- 0.0114            Incl.   14.29426 +/- 0.23
P   3.95                   H 22.1   G  0.15   U  9.6  
q 1.30437235 +/- 0.0051    Q 3.69017333 +/- 0.125
From 19 observations 2019 Aug. 8-12; mean residual 0".16
Residuals in arcseconds: 
190808 F51  .01+  .00     190808 L01  .10-  .14+    190810 H36  .10-  .04-    
190808 F51  .00   .01-    190809 F51  .07+  .06+    190812 291  .12+  .05+    
190808 F51  .03+  .04-    190810 H21  .16+  .01-    190812 291  .13+  .21-    
190808 L01  .04+  .11+    190810 H21  .03-  .07+    190812 291  .13-  .40+    
190808 L01  .04-  .26+    190810 H36  .25+  .19+    190812 291  .13-  .23-    
190808 L01  .27-  .07-    190810 H21  .06+  .06-    
190808 L01  .21+  .39-    190810 H36  .30-  .21-    

Ephemerides (geocentric):
Date (UTC) HH   RA              Dec         delta   r     elong  mag " sig PA
---- -- -- --  -------------   -----------  ------ ------ -----  --- ---- ---
2019 08 15 13  21 01 24.034   -12 18 28.57  .31855 1.3283 170.9 20.8 .987 107
2019 08 15 14  21 01 23.118   -12 16 32.96  .31867 1.3284 170.8 20.8 1.01 108
2019 08 15 15  21 01 22.206   -12 14 37.44  .31880 1.3285 170.8 20.8 1.03 108
2019 08 15 16  21 01 21.296   -12 12 42.02  .31892 1.3286 170.8 20.8 1.06 109
2019 08 15 17  21 01 20.390   -12 10 46.69  .31904 1.3287 170.7 20.8 1.08 109
2019 08 15 18  21 01 19.486   -12 08 51.46  .31916 1.3287 170.7 20.8 1.11 110
2019 08 15 19  21 01 18.585   -12 06 56.32  .31928 1.3288 170.6 20.8 1.13 110
2019 08 15 20  21 01 17.686   -12 05 01.27  .31940 1.3289 170.6 20.8 1.16 110
2019 08 15 21  21 01 16.791   -12 03 06.32  .31953 1.3290 170.5 20.8 1.19 111
2019 08 15 22  21 01 15.898   -12 01 11.46  .31965 1.3291 170.5 20.8 1.21 111
2019 08 15 23  21 01 15.009   -11 59 16.70  .31977 1.3292 170.4 20.8 1.24 112
2019 08 16 00  21 01 14.122   -11 57 22.03  .31990 1.3292 170.4 20.8 1.26 112
2019 08 16 01  21 01 13.238   -11 55 27.46  .32002 1.3293 170.3 20.8 1.29 112
2019 08 16 02  21 01 12.356   -11 53 32.98  .32014 1.3294 170.3 20.8 1.32 113
2019 08 16 03  21 01 11.478   -11 51 38.60  .32027 1.3295 170.3 20.8 1.35 113
2019 08 16 04  21 01 10.603   -11 49 44.31  .32039 1.3296 170.2 20.8 1.38 113
2019 08 16 05  21 01 09.730   -11 47 50.12  .32052 1.3297 170.2 20.8 1.40 114
2019 08 16 06  21 01 08.860   -11 45 56.03  .32064 1.3297 170.1 20.8 1.43 114
2019 08 16 07  21 01 07.994   -11 44 02.03  .32077 1.3298 170.1 20.8 1.46 114
2019 08 16 08  21 01 07.130   -11 42 08.13  .32089 1.3299 170.0 20.8 1.49 114
2019 08 16 09  21 01 06.269   -11 40 14.32  .32102 1.3300 170.0 20.8 1.52 115
2019 08 16 10  21 01 05.411   -11 38 20.61  .32115 1.3301 169.9 20.8 1.55 115
2019 08 16 11  21 01 04.555   -11 36 27.00  .32127 1.3302 169.9 20.8 1.58 115
2019 08 16 12  21 01 03.703   -11 34 33.49  .32140 1.3302 169.8 20.8 1.61 116
2019 08 16 13  21 01 02.854   -11 32 40.07  .32153 1.3303 169.8 20.8 1.64 116
2019 08 16 14  21 01 02.007   -11 30 46.75  .32165 1.3304 169.8 20.8 1.68 116
2019 08 16 15  21 01 01.164   -11 28 53.53  .32178 1.3305 169.7 20.8 1.71 116
2019 08 16 16  21 01 00.323   -11 27 00.40  .32191 1.3306 169.7 20.8 1.74 117
2019 08 16 17  21 00 59.485   -11 25 07.37  .32204 1.3307 169.6 20.8 1.77 117
2019 08 16 18  21 00 58.651   -11 23 14.44  .32217 1.3307 169.6 20.8 1.80 117
2019 08 16 19  21 00 57.819   -11 21 21.61  .32230 1.3308 169.5 20.9 1.84 117
2019 08 16 20  21 00 56.990   -11 19 28.88  .32243 1.3309 169.5 20.9 1.87 117
2019 08 16 21  21 00 56.164   -11 17 36.24  .32256 1.3310 169.4 20.9 1.90 118
2019 08 16 22  21 00 55.341   -11 15 43.71  .32269 1.3311 169.4 20.9 1.94 118
2019 08 16 23  21 00 54.521   -11 13 51.27  .32282 1.3312 169.3 20.9 1.97 118
2019 08 17 00  21 00 53.704   -11 11 58.93  .32295 1.3313 169.3 20.9 2.01 118
2019 08 17 01  21 00 52.890   -11 10 06.69  .32308 1.3313 169.3 20.9 2.04 118
2019 08 17 02  21 00 52.079   -11 08 14.55  .32321 1.3314 169.2 20.9 2.08 119
2019 08 17 03  21 00 51.271   -11 06 22.51  .32334 1.3315 169.2 20.9 2.11 119
2019 08 17 04  21 00 50.466   -11 04 30.57  .32347 1.3316 169.1 20.9 2.15 119
2019 08 17 05  21 00 49.664   -11 02 38.73  .32360 1.3317 169.1 20.9 2.19 119
2019 08 17 06  21 00 48.865   -11 00 46.99  .32374 1.3318 169.0 20.9 2.22 119
2019 08 17 07  21 00 48.069   -10 58 55.35  .32387 1.3319 169.0 20.9 2.26 120
2019 08 17 08  21 00 47.276   -10 57 03.80  .32400 1.3319 168.9 20.9 2.30 120
2019 08 17 09  21 00 46.486   -10 55 12.36  .32414 1.3320 168.9 20.9 2.34 120
2019 08 17 10  21 00 45.699   -10 53 21.02  .32427 1.3321 168.9 20.9 2.37 120
2019 08 17 11  21 00 44.915   -10 51 29.78  .32440 1.3322 168.8 20.9 2.41 120
2019 08 17 12  21 00 44.134   -10 49 38.64  .32454 1.3323 168.8 20.9 2.45 120